This demonstration page uses our WeatherBlox Daily Observations layout. Learn more.

Hourly Observations for January 14, 2019

Temp ( °F °C ) Dew Point ( °F °C ) Humidity (%) Winds ( mph kmh ) Pressure ( in mb ) Visibility ( mi km ) Precip ( " mm )
12:15 am 00:15 Cloudy with Mist and Fog 30 -1.1 29 -1.8 95 95 WSW 9 15 30.42 1030 0.75 1.207008 0 0
12:35 am 00:35 Cloudy with Mist and Fog 30 -1.1 29 -1.7 96 96 WSW 9 15 30.42 1030 0.75 1.207008 0 0
12:55 am 00:55 Cloudy with Mist and Fog 30 -1 29 -1.6 96 96 WSW 6 9 30.42 1030 0.75 1.207008 0 0
1:15 am 01:15 Cloudy with Mist and Fog 30 -1 29 -1.6 96 96 W 8 13 30.42 1030 1.5 2.414016 0 0
1:35 am 01:35 Cloudy with Mist and Fog 30 -1 29 -1.5 96 96 WSW 8 13 30.39 1029 1.25 2.01168 0 0
1:55 am 01:55 Cloudy with Mist and Fog 31 -0.8 29 -1.5 95 95 WSW 8 13 30.39 1029 0.75 1.207008 0 0
2:15 am 02:15 Cloudy with Mist and Fog 31 -0.8 29 -1.5 95 95 SW 9 15 30.42 1030 1 1.609344 0 0
2:35 am 02:35 Cloudy with Mist and Fog 30 -1 29 -1.6 96 96 SW 7 11 30.39 1029 1.25 2.01168 0 0
2:55 am 02:55 Cloudy with Mist and Fog 30 -1 29 -1.6 96 96 WSW 7 11 30.42 1030 3 4.828032 0 0
3:15 am 03:15 Cloudy with Mist and Fog 30 -0.9 29 -1.5 96 96 WSW 7 11 30.39 1029 1.75 2.816352 0 0
3:35 am 03:35 Cloudy with Mist and Fog 30 -1 29 -1.6 96 96 SW 7 11 30.39 1029 1.5 2.414016 0 0
3:55 am 03:55 Cloudy with Mist and Fog 30 -1 29 -1.6 96 96 WSW 10 17 30.39 1029 1.5 2.414016 0 0
4:15 am 04:15 Cloudy with Mist and Fog 30 -1 29 -1.6 96 96 SW 8 13 30.39 1029 2 3.218688 0 0
4:35 am 04:35 Cloudy with Mist and Fog 30 -1 29 -1.6 96 96 SW 8 13 30.39 1029 1.75 2.816352 0 0
4:55 am 04:55 Cloudy with Mist and Fog 30 -1 29 -1.6 96 96 WSW 6 9 30.39 1029 1.25 2.01168 0 0
5:15 am 05:15 Cloudy with Mist and Fog 30 -1.1 29 -1.7 96 96 WSW 7 11 30.39 1029 1.25 2.01168 0 0
5:35 am 05:35 Cloudy with Mist and Fog 30 -1.1 29 -1.7 96 96 W 10 17 30.39 1029 2 3.218688 0 0
5:55 am 05:55 Cloudy with Mist and Fog 30 -1.3 28 -2 95 95 W 10 17 30.39 1029 1.75 2.816352 0 0
6:15 am 06:15 Cloudy with Mist and Fog 29 -1.5 28 -2 96 96 WSW 8 13 30.39 1029 1 1.609344 0 0
6:35 am 06:35 Cloudy with Mist and Fog 29 -1.5 28 -2.1 96 96 WSW 7 11 30.39 1029 1 1.609344 0 0
6:55 am 06:55 Cloudy with Mist and Fog 29 -1.6 28 -2.2 96 96 W 7 11 30.39 1029 1.25 2.01168 0 0
7:15 am 07:15 Cloudy with Mist and Fog 29 -1.6 28 -2.3 95 95 WSW 6 9 30.39 1029 1 1.609344 0 0
7:35 am 07:35 Cloudy with Mist and Fog 29 -1.6 28 -2.3 95 95 W 7 11 30.39 1029 1 1.609344 0 0
7:55 am 07:55 Cloudy with Mist and Fog 29 -1.7 28 -2.5 94 94 W 7 11 30.39 1029 0.75 1.207008 0 0
8:15 am 08:15 Cloudy with Freezing Fog 29 -1.7 28 -2.5 94 94 W 8 13 30.39 1029 0.5 0.804672 0 0
8:35 am 08:35 Cloudy with Freezing Fog 29 -1.7 28 -2.5 94 94 W 8 13 30.39 1029 0.5 0.804672 0 0
8:55 am 08:55 Cloudy with Freezing Fog 29 -1.8 28 -2.5 95 95 W 8 13 30.39 1029 0.5 0.804672 0 0
9:15 am 09:15 Cloudy with Freezing Fog 29 -1.7 28 -2.5 94 94 WSW 6 9 30.39 1029 0.25 0.402336 0 0
9:35 am 09:35 Cloudy with Freezing Fog 29 -1.7 28 -2.5 94 94 SW 10 17 30.39 1029 0.5 0.804672 0 0
9:55 am 09:55 Cloudy with Freezing Fog 29 -1.7 28 -2.5 94 94 WSW 7 11 30.39 1029 0.5 0.804672 0 0
10:15 am 10:15 Cloudy with Mist and Fog 29 -1.4 28 -2.1 95 95 SW 7 11 30.39 1029 1.25 2.01168 0 0
10:35 am 10:35 Cloudy with Mist and Fog 29 -1.5 28 -2.1 96 96 WSW 6 9 30.39 1029 2 3.218688 0 0
10:55 am 10:55 Cloudy with Mist and Fog 30 -1 29 -1.7 95 95 W 7 11 30.39 1029 2 3.218688 0 0
11:15 am 11:15 Cloudy with Mist and Fog 30 -1 29 -1.6 96 96 SW 7 11 30.39 1029 3 4.828032 0 0
11:35 am 11:35 Cloudy 31 -0.5 30 -1.1 96 96 WSW 6 9 30.39 1029 10 16.09344 0 0
11:55 am 11:55 Cloudy 31 -0.5 30 -1 96 96 WSW 6 9 30.36 1028 10 16.09344 0 0
12:15 pm 12:15 Mostly Cloudy 32 -0.1 31 -0.8 95 95 WSW 3 6 30.33 1027 10 16.09344 0 0
12:35 pm 12:35 Mostly Cloudy 33 0.7 32 0 95 95 WSW 7 11 30.33 1027 10 16.09344 0 0
12:55 pm 12:55 Sunny 35 1.5 31 -0.6 86 86 SW 7 11 30.3 1026 10 16.09344 0 0
1:15 pm 13:15 Sunny 35 1.9 30 -1 81 81 WSW 7 11 30.3 1026 10 16.09344 0 0
1:35 pm 13:35 Sunny 36 2.3 30 -0.9 80 80 SW 6 9 30.3 1026 10 16.09344 0 0
1:55 pm 13:55 Sunny 38 3.1 31 -0.6 77 77 WSW 6 9 30.24 1024 10 16.09344 0 0
2:15 pm 14:15 Sunny 39 4 31 -0.5 73 73 SW 5 7 30.24 1024 10 16.09344 0 0
2:35 pm 14:35 Sunny 40 4.4 32 -0.2 72 72 WSW 6 9 30.24 1024 10 16.09344 0 0
2:55 pm 14:55 Sunny 41 4.8 32 0 71 71 SW 6 9 30.24 1024 10 16.09344 0 0
3:15 pm 15:15 Sunny 42 5.5 32 0.1 69 69 SW 6 9 30.21 1023 10 16.09344 0 0
3:35 pm 15:35 Sunny 43 6.1 32 0.1 66 66 SSW 7 11 30.21 1023 10 16.09344 0 0
3:55 pm 15:55 Sunny 43 6.3 32 0.2 65 65 SW 8 13 30.21 1023 10 16.09344 0 0
4:15 pm 16:15 Sunny 44 6.5 32 0.1 64 64 SSW 7 11 30.21 1023 10 16.09344 0 0
4:35 pm 16:35 Sunny 42 5.7 32 0.2 68 68 S 6 9 30.21 1023 10 16.09344 0 0
4:55 pm 16:55 Sunny 41 4.8 32 0 71 71 S 6 9 30.24 1024 10 16.09344 0 0
5:15 pm 17:15 Sunny 39 3.7 32 -0.2 76 76 S 5 7 30.24 1024 10 16.09344 0 0
5:35 pm 17:35 Clear 35 1.8 29 -1.4 80 80 SSW 7 11 30.27 1025 10 16.09344 0 0
5:55 pm 17:55 Clear 36 2 31 -0.8 82 82 SSW 5 7 30.27 1025 10 16.09344 0 0
6:15 pm 18:15 Clear 33 0.4 29 -1.6 87 87 S 5 7 30.24 1024 10 16.09344 0 0
6:35 pm 18:35 Clear 32 0.2 29 -1.9 86 86 S 7 11 30.24 1024 10 16.09344 0 0
6:55 pm 18:55 Clear 31 -0.7 28 -2.3 89 89 S 7 11 30.24 1024 10 16.09344 0 0
7:15 pm 19:15 Clear 30 -1.3 27 -2.8 90 90 S 6 9 30.27 1025 10 16.09344 0 0
7:35 pm 19:35 Clear 29 -1.5 27 -3 90 90 S 5 7 30.3 1026 10 16.09344 0 0
7:55 pm 19:55 Clear 28 -2 26 -3.1 92 92 SSE 3 6 30.3 1026 7 11.265408 0 0
8:15 pm 20:15 Clear 29 -1.8 27 -2.9 92 92 Calm 30.27 1025 7 11.265408 0 0
8:35 pm 20:35 Clear 28 -2.2 26 -3.2 93 93 ESE 3 6 30.3 1026 7 11.265408 0 0
8:55 pm 20:55 Clear 27 -3 25 -4 93 93 ESE 3 6 30.3 1026 7 11.265408 0 0
9:15 pm 21:15 Clear 26 -3.6 24 -4.6 93 93 Calm 30.3 1026 7 11.265408 0 0
9:35 pm 21:35 Clear 26 -3.5 24 -4.5 93 93 E 3 6 30.3 1026 7 11.265408 0 0
9:55 pm 21:55 Clear 25 -4 23 -5 93 93 Calm 30.33 1027 10 16.09344 0 0
10:15 pm 22:15 Clear 24 -4.5 22 -5.5 93 93 SE 3 6 30.33 1027 10 16.09344 0 0
10:35 pm 22:35 Partly Cloudy 23 -4.8 22 -5.7 94 94 SSE 5 7 30.33 1027 7 11.265408 0 0
10:55 pm 22:55 Partly Cloudy 23 -5 21 -6 93 93 SE 3 6 30.33 1027 10 16.09344 0 0
11:15 pm 23:15 Clear with Mist and Fog 23 -4.8 22 -5.7 94 94 Calm 30.33 1027 5 8.04672 0 0
11:35 pm 23:35 Clear 23 -4.8 22 -5.8 93 93 ENE 5 7 30.33 1027 10 16.09344 0 0
11:55 pm 23:55 Cloudy with Freezing Fog 23 -4.8 22 -5.7 94 94 E 5 7 30.33 1027 0.5 0.804672 0 0

Powered by AerisWeather